sat.trackr.live / text

‹ back to catalog

STARLINK-5515

NORAD 56884 · 2023-083J

PAYLOAD ACTIVE UNKNOWN

§ Identity

Operator
Country
US
Launch date
2023-06-12
Launch site
AFETR
Launch vehicle
Mass (kg)
RCS (m²)

Purposes: comms

External: N2YO · Heavens-Above · Gunter

§ Orbital elements

Epoch: 2026-05-24T23:43:00.791040Z

Period
94.27 min
Inclination
43.0038°
Eccentricity
0.0001107
Mean motion
15.27577494 rev/d
Perigee alt
482.3 km
Apogee alt
483.8 km
Semi-major
6,861.2 km
B*
5.1952e-6
RAAN
13.9230°
Arg perigee
264.9929°
Mean anomaly
95.0796°
Rev number
16,330

§ Raw data

STARLINK-55151 56884U 23083J   26144.98820360 -.00000119  00000+0  51952-5 0  99982 56884  43.0038  13.9230 0001107 264.9929  95.0796 15.27577494163309

JSON: /api/v1/satellites/56884 · /tle

For live sub-satellite position, see the globe view (requires WebGL).

§ Visibility from observer

Set your observer location to see the next 7 days of passes ≥ 10°. The values pass through the URL so the page stays shareable.

No JS? Fill the form by hand. The geolocation button needs JavaScript.